Location: Degersen
(52.2871°N, 9.5716°E)
Time: 22:57:15
(UTC+00:00)

Cosmos 1943 Rocket - Pass Details

Date: 20 January 2026
Orbit: 812 x 842 km, 71.0° (Epoch: 9 February)

Event Time Altitude Azimuth Distance (km) Brightness Sun altitude
Exits shadow 05:31:21 22° 258° (WSW) 1,708 3.3 -16.0°
Maximum altitude 05:34:20 39° 313° (NW) 1,204 2.6 -15.5°
Drops below altitude 10° 05:39:30 10° 22° (NNE) 2,416 4.7 -14.8°
Sets 05:42:06 0° 30° (NNE) 3,354 5.5 -14.4°
